| time (UTC) | temp C | wind direction | speed KPH | gust KPH | rain 1hr cm | rain 24hr cm | rain mn cm | humidity % | barometer mb |
| 20260831223051 | 15 | 160 | 8.0 | 0.0 | 0.00 | 0.00 | 0.00 | 100 | 1011.0 |
| 20260831221803 | 15 | 160 | 8.0 | 0.0 | 0.00 | 0.00 | 0.00 | 100 | 1011.0 |
| 20260831221050 | 15 | 140 | 9.7 | 0.0 | 0.00 | 0.00 | 0.00 | 100 | 1010.0 |
| 20260831220256 | 15 | 140 | 9.7 | 0.0 | 0.00 | 0.00 | 0.00 | 100 | 1010.0 |
| 20260831215058 | 15 | 140 | 9.7 | 0.0 | 0.00 | 0.00 | 0.00 | 100 | 1010.0 |
| 20260831214757 | 15 | 140 | 9.7 | 0.0 | 0.00 | 0.00 | 0.00 | 100 | 1010.0 |
| 20260831213256 | 15 | 140 | 8.0 | 0.0 | 0.00 | 0.00 | 0.00 | 93 | 1010.0 |
| 20260831213056 | 15 | 140 | 8.0 | 0.0 | 0.00 | 0.00 | 0.00 | 93 | 1010.0 |
| 20260831211757 | 15 | 140 | 8.0 | 0.0 | 0.00 | 0.00 | 0.00 | 93 | 1010.0 |
| 20260831211055 | 15 | 140 | 9.7 | 0.0 | 0.00 | 0.00 | 0.00 | 100 | 1010.0 |
| 20260831210256 | 15 | 140 | 9.7 | 0.0 | 0.00 | 0.00 | 0.00 | 100 | 1010.0 |
| 20260831205052 | 15 | 140 | 9.7 | 0.0 | 0.00 | 0.00 | 0.00 | 100 | 1010.0 |
| 20260831204758 | 15 | 140 | 9.7 | 0.0 | 0.00 | 0.00 | 0.00 | 100 | 1010.0 |
| 20260831203255 | 13 | 130 | 12.9 | 0.0 | 0.00 | 0.00 | 0.00 | 100 | 1010.0 |
| 20260831203051 | 13 | 130 | 12.9 | 0.0 | 0.00 | 0.00 | 0.00 | 100 | 1010.0 |
| 20260831201758 | 13 | 130 | 12.9 | 0.0 | 0.00 | 0.00 | 0.00 | 100 | 1010.0 |
| 20260831201049 | 13 | 130 | 11.3 | 0.0 | 0.00 | 0.00 | 0.00 | 93 | 1010.0 |
| 20260831200255 | 13 | 130 | 11.3 | 0.0 | 0.00 | 0.00 | 0.00 | 93 | 1010.0 |
| 20260831195052 | 13 | 130 | 11.3 | 0.0 | 0.00 | 0.00 | 0.00 | 93 | 1010.0 |
| 20260831194757 | 13 | 130 | 11.3 | 0.0 | 0.00 | 0.00 | 0.00 | 93 | 1010.0 |
| 20260831193256 | 13 | 230 | 4.8 | 0.0 | 0.00 | 0.00 | 0.00 | 93 | 1010.0 |
| 20260831193051 | 13 | 230 | 4.8 | 0.0 | 0.00 | 0.00 | 0.00 | 93 | 1010.0 |
| 20260831191758 | 13 | 230 | 4.8 | 0.0 | 0.00 | 0.00 | 0.00 | 93 | 1010.0 |
| 20260831191049 | 17 | 140 | 9.7 | 0.0 | 0.00 | 0.00 | 0.00 | 72 | 1010.0 |
| 20260831190256 | 17 | 140 | 9.7 | 0.0 | 0.00 | 0.00 | 0.00 | 72 | 1010.0 |
| 20260831185052 | 17 | 140 | 9.7 | 0.0 | 0.00 | 0.00 | 0.00 | 72 | 1010.0 |
| 20260831184757 | 17 | 140 | 9.7 | 0.0 | 0.00 | 0.00 | 0.00 | 72 | 1010.0 |
| 20260831183258 | 17 | 140 | 9.7 | 0.0 | 0.00 | 0.00 | 0.00 | 72 | 1009.0 |
| 20260831183050 | 17 | 140 | 9.7 | 0.0 | 0.00 | 0.00 | 0.00 | 72 | 1009.0 |
| 20260831181757 | 17 | 140 | 9.7 | 0.0 | 0.00 | 0.00 | 0.00 | 72 | 1009.0 |
| 20260831181048 | 20 | 150 | 12.9 | 0.0 | 0.00 | 0.00 | 0.00 | 64 | 1009.0 |
| 20260831180256 | 20 | 150 | 12.9 | 0.0 | 0.00 | 0.00 | 0.00 | 64 | 1009.0 |
| 20260831175051 | 20 | 150 | 12.9 | 0.0 | 0.00 | 0.00 | 0.00 | 64 | 1009.0 |
| 20260831174756 | 20 | 150 | 12.9 | 0.0 | 0.00 | 0.00 | 0.00 | 64 | 1009.0 |
| 20260831173257 | 22 | 180 | 9.7 | 0.0 | 0.00 | 0.00 | 0.00 | 60 | 1009.0 |
| 20260831173050 | 22 | 180 | 9.7 | 0.0 | 0.00 | 0.00 | 0.00 | 60 | 1009.0 |
| 20260831171757 | 22 | 180 | 9.7 | 0.0 | 0.00 | 0.00 | 0.00 | 60 | 1009.0 |
| 20260831171048 | 22 | 200 | 14.5 | 0.0 | 0.00 | 0.00 | 0.00 | 60 | 1009.0 |
| 20260831170256 | 22 | 200 | 14.5 | 0.0 | 0.00 | 0.00 | 0.00 | 60 | 1009.0 |
| 20260831165053 | 22 | 200 | 14.5 | 0.0 | 0.00 | 0.00 | 0.00 | 60 | 1009.0 |
| 20260831164756 | 22 | 200 | 14.5 | 0.0 | 0.00 | 0.00 | 0.00 | 60 | 1009.0 |
| 20260831163256 | 23 | 190 | 19.3 | 0.0 | 0.00 | 0.00 | 0.00 | 57 | 1009.0 |
| 20260831163051 | 23 | 190 | 19.3 | 0.0 | 0.00 | 0.00 | 0.00 | 57 | 1009.0 |
| 20260831161757 | 23 | 190 | 19.3 | 0.0 | 0.00 | 0.00 | 0.00 | 57 | 1009.0 |
| 20260831161050 | 23 | 170 | 19.3 | 0.0 | 0.00 | 0.00 | 0.00 | 53 | 1009.0 |
| 20260831160257 | 23 | 170 | 19.3 | 0.0 | 0.00 | 0.00 | 0.00 | 53 | 1009.0 |
| 20260831155053 | 23 | 170 | 19.3 | 0.0 | 0.00 | 0.00 | 0.00 | 53 | 1009.0 |
| 20260831154756 | 23 | 170 | 19.3 | 0.0 | 0.00 | 0.00 | 0.00 | 53 | 1009.0 |
| 20260831153256 | 23 | 180 | 12.9 | 0.0 | 0.00 | 0.00 | 0.00 | 53 | 1009.0 |
| 20260831153051 | 23 | 180 | 12.9 | 0.0 | 0.00 | 0.00 | 0.00 | 53 | 1009.0 |
| 20260831151757 | 23 | 180 | 12.9 | 0.0 | 0.00 | 0.00 | 0.00 | 53 | 1009.0 |
| 20260831151050 | 23 | 180 | 12.9 | 0.0 | 0.00 | 0.00 | 0.00 | 53 | 1009.0 |
| 20260831150256 | 23 | 180 | 12.9 | 0.0 | 0.00 | 0.00 | 0.00 | 53 | 1009.0 |
| 20260831145058 | 23 | 180 | 12.9 | 0.0 | 0.00 | 0.00 | 0.00 | 53 | 1009.0 |
| 20260831144755 | 23 | 180 | 12.9 | 0.0 | 0.00 | 0.00 | 0.00 | 53 | 1009.0 |
| 20260831143256 | 25 | 180 | 14.5 | 0.0 | 0.00 | 0.00 | 0.00 | 50 | 1009.0 |
| 20260831143056 | 25 | 180 | 14.5 | 0.0 | 0.00 | 0.00 | 0.00 | 50 | 1009.0 |
| 20260831141756 | 25 | 180 | 14.5 | 0.0 | 0.00 | 0.00 | 0.00 | 50 | 1009.0 |
| 20260831141054 | 25 | 210 | 16.1 | 0.0 | 0.00 | 0.00 | 0.00 | 47 | 1010.0 |
| 20260831140255 | 25 | 210 | 16.1 | 0.0 | 0.00 | 0.00 | 0.00 | 47 | 1010.0 |
| 20260831135052 | 25 | 210 | 16.1 | 0.0 | 0.00 | 0.00 | 0.00 | 47 | 1010.0 |
| 20260831134756 | 25 | 210 | 16.1 | 0.0 | 0.00 | 0.00 | 0.00 | 47 | 1010.0 |
| 20260831133255 | 25 | 220 | 20.9 | 0.0 | 0.00 | 0.00 | 0.00 | 47 | 1010.0 |
| 20260831133050 | 25 | 220 | 20.9 | 0.0 | 0.00 | 0.00 | 0.00 | 47 | 1010.0 |
| 20260831131758 | 25 | 220 | 20.9 | 0.0 | 0.00 | 0.00 | 0.00 | 47 | 1010.0 |
| 20260831131049 | 23 | 200 | 20.9 | 0.0 | 0.00 | 0.00 | 0.00 | 53 | 1010.0 |
| 20260831130257 | 23 | 200 | 20.9 | 0.0 | 0.00 | 0.00 | 0.00 | 53 | 1010.0 |
| 20260831125052 | 23 | 200 | 20.9 | 0.0 | 0.00 | 0.00 | 0.00 | 53 | 1010.0 |
| 20260831124758 | 23 | 200 | 20.9 | 0.0 | 0.00 | 0.00 | 0.00 | 53 | 1010.0 |
| 20260831123256 | 23 | 190 | 20.9 | 0.0 | 0.00 | 0.00 | 0.00 | 53 | 1010.0 |
| 20260831123050 | 23 | 190 | 20.9 | 0.0 | 0.00 | 0.00 | 0.00 | 53 | 1010.0 |
| 20260831121759 | 23 | 190 | 20.9 | 0.0 | 0.00 | 0.00 | 0.00 | 53 | 1010.0 |
| 20260831121048 | 22 | 150 | 16.1 | 0.0 | 0.00 | 0.00 | 0.00 | 64 | 1010.0 |
| 20260831120300 | 22 | 150 | 16.1 | 0.0 | 0.00 | 0.00 | 0.00 | 64 | 1010.0 |
| 20260831115052 | 22 | 150 | 16.1 | 0.0 | 0.00 | 0.00 | 0.00 | 64 | 1010.0 |
| 20260831114800 | 22 | 150 | 16.1 | 0.0 | 0.00 | 0.00 | 0.00 | 64 | 1010.0 |
| 20260831113301 | 21 | 170 | 12.9 | 0.0 | 0.00 | 0.00 | 0.00 | 68 | 1010.0 |
| 20260831113050 | 21 | 170 | 12.9 | 0.0 | 0.00 | 0.00 | 0.00 | 68 | 1010.0 |
| 20260831111802 | 21 | 170 | 12.9 | 0.0 | 0.00 | 0.00 | 0.00 | 68 | 1010.0 |
| 20260831111048 | 18 | 170 | 11.3 | 0.0 | 0.00 | 0.00 | 0.00 | 77 | 1011.0 |
| 20260831110255 | 18 | 170 | 11.3 | 0.0 | 0.00 | 0.00 | 0.00 | 77 | 1011.0 |
| 20260831105050 | 18 | 170 | 11.3 | 0.0 | 0.00 | 0.00 | 0.00 | 77 | 1011.0 |
| 20260831104802 | 18 | 170 | 11.3 | 0.0 | 0.00 | 0.00 | 0.00 | 77 | 1011.0 |
| 20260831103300 | 18 | 170 | 12.9 | 0.0 | 0.00 | 0.00 | 0.00 | 82 | 1011.0 |
| 20260831103049 | 18 | 170 | 12.9 | 0.0 | 0.00 | 0.00 | 0.00 | 82 | 1011.0 |
| 20260831101800 | 18 | 170 | 12.9 | 0.0 | 0.00 | 0.00 | 0.00 | 82 | 1011.0 |
| 20260831101047 | 20 | 160 | 11.3 | 0.0 | 0.00 | 0.00 | 0.00 | 72 | 1011.0 |
| 20260831100433 | 20 | 160 | 11.3 | 0.0 | 0.00 | 0.00 | 0.00 | 72 | 1011.0 |
| 20260831100259 | 20 | 160 | 11.3 | 0.0 | 0.00 | 0.00 | 0.00 | 72 | 1011.0 |
| 20260831095050 | 20 | 160 | 11.3 | 0.0 | 0.00 | 0.00 | 0.00 | 72 | 1011.0 |
| 20260831094756 | 20 | 160 | 11.3 | 0.0 | 0.00 | 0.00 | 0.00 | 72 | 1011.0 |
| 20260831093256 | 20 | 160 | 9.7 | 0.0 | 0.00 | 0.00 | 0.00 | 72 | 1011.0 |
| 20260831093049 | 20 | 160 | 9.7 | 0.0 | 0.00 | 0.00 | 0.00 | 72 | 1011.0 |
| 20260831091757 | 20 | 160 | 9.7 | 0.0 | 0.00 | 0.00 | 0.00 | 72 | 1011.0 |
| 20260831091047 | 18 | 140 | 9.7 | 0.0 | 0.00 | 0.00 | 0.00 | 77 | 1011.0 |
| 20260831090255 | 18 | 140 | 9.7 | 0.0 | 0.00 | 0.00 | 0.00 | 77 | 1011.0 |
| 20260831085052 | 18 | 140 | 9.7 | 0.0 | 0.00 | 0.00 | 0.00 | 77 | 1011.0 |
| 20260831084756 | 18 | 140 | 9.7 | 0.0 | 0.00 | 0.00 | 0.00 | 77 | 1011.0 |
| 20260831083257 | 18 | 170 | 9.7 | 0.0 | 0.00 | 0.00 | 0.00 | 77 | 1011.0 |
| 20260831083051 | 18 | 170 | 9.7 | 0.0 | 0.00 | 0.00 | 0.00 | 77 | 1011.0 |
| 20260831081756 | 18 | 170 | 9.7 | 0.0 | 0.00 | 0.00 | 0.00 | 77 | 1011.0 |
| 20260831081049 | 18 | 160 | 9.7 | 0.0 | 0.00 | 0.00 | 0.00 | 77 | 1011.0 |
| 20260831080256 | 18 | 160 | 9.7 | 0.0 | 0.00 | 0.00 | 0.00 | 77 | 1011.0 |
| 20260831075052 | 18 | 160 | 9.7 | 0.0 | 0.00 | 0.00 | 0.00 | 77 | 1011.0 |
| 20260831074756 | 18 | 160 | 9.7 | 0.0 | 0.00 | 0.00 | 0.00 | 77 | 1011.0 |
| 20260831073255 | 18 | 180 | 9.7 | 0.0 | 0.00 | 0.00 | 0.00 | 77 | 1011.0 |
| 20260831073051 | 18 | 180 | 9.7 | 0.0 | 0.00 | 0.00 | 0.00 | 77 | 1011.0 |
| 20260831071756 | 18 | 180 | 9.7 | 0.0 | 0.00 | 0.00 | 0.00 | 77 | 1011.0 |
| 20260831071049 | 18 | 160 | 9.7 | 0.0 | 0.00 | 0.00 | 0.00 | 77 | 1011.0 |
| 20260831070255 | 18 | 160 | 9.7 | 0.0 | 0.00 | 0.00 | 0.00 | 77 | 1011.0 |
| 20260831065052 | 18 | 160 | 9.7 | 0.0 | 0.00 | 0.00 | 0.00 | 77 | 1011.0 |
| 20260831064756 | 18 | 160 | 9.7 | 0.0 | 0.00 | 0.00 | 0.00 | 77 | 1011.0 |
| 20260831063257 | 17 | 160 | 9.7 | 0.0 | 0.00 | 0.00 | 0.00 | 77 | 1011.0 |
| 20260831063051 | 17 | 160 | 9.7 | 0.0 | 0.00 | 0.00 | 0.00 | 77 | 1011.0 |
| 20260831061757 | 17 | 160 | 9.7 | 0.0 | 0.00 | 0.00 | 0.00 | 77 | 1011.0 |
| 20260831061049 | 17 | 140 | 11.3 | 0.0 | 0.00 | 0.00 | 0.00 | 77 | 1011.0 |
| 20260831060254 | 17 | 140 | 11.3 | 0.0 | 0.00 | 0.00 | 0.00 | 77 | 1011.0 |
| 20260831055052 | 17 | 140 | 11.3 | 0.0 | 0.00 | 0.00 | 0.00 | 77 | 1011.0 |
| 20260831054756 | 17 | 140 | 11.3 | 0.0 | 0.00 | 0.00 | 0.00 | 77 | 1011.0 |
| 20260831053257 | 17 | 150 | 9.7 | 0.0 | 0.00 | 0.00 | 0.00 | 77 | 1011.0 |
| 20260831053051 | 17 | 150 | 9.7 | 0.0 | 0.00 | 0.00 | 0.00 | 77 | 1011.0 |
| 20260831051756 | 17 | 150 | 9.7 | 0.0 | 0.00 | 0.00 | 0.00 | 77 | 1011.0 |
| 20260831051049 | 17 | 140 | 11.3 | 0.0 | 0.00 | 0.00 | 0.00 | 88 | 1011.0 |
| 20260831050258 | 17 | 140 | 11.3 | 0.0 | 0.00 | 0.00 | 0.00 | 88 | 1011.0 |
| 20260831045052 | 17 | 140 | 11.3 | 0.0 | 0.00 | 0.00 | 0.00 | 88 | 1011.0 |
| 20260831044757 | 17 | 140 | 11.3 | 0.0 | 0.00 | 0.00 | 0.00 | 88 | 1011.0 |
| 20260831043257 | 17 | 140 | 9.7 | 0.0 | 0.00 | 0.00 | 0.00 | 88 | 1011.0 |
| 20260831043051 | 17 | 140 | 9.7 | 0.0 | 0.00 | 0.00 | 0.00 | 88 | 1011.0 |
| 20260831041756 | 17 | 140 | 9.7 | 0.0 | 0.00 | 0.00 | 0.00 | 88 | 1011.0 |
| 20260831041049 | 17 | 140 | 8.0 | 0.0 | 0.00 | 0.00 | 0.00 | 82 | 1011.0 |
| 20260831040255 | 17 | 140 | 8.0 | 0.0 | 0.00 | 0.00 | 0.00 | 82 | 1011.0 |
| 20260831035052 | 17 | 140 | 8.0 | 0.0 | 0.00 | 0.00 | 0.00 | 82 | 1011.0 |
| 20260831034756 | 17 | 140 | 8.0 | 0.0 | 0.00 | 0.00 | 0.00 | 82 | 1011.0 |
| 20260831033256 | 17 | 140 | 8.0 | 0.0 | 0.00 | 0.00 | 0.00 | 82 | 1011.0 |
| 20260831033050 | 17 | 140 | 8.0 | 0.0 | 0.00 | 0.00 | 0.00 | 82 | 1011.0 |
| 20260831031756 | 17 | 140 | 8.0 | 0.0 | 0.00 | 0.00 | 0.00 | 82 | 1011.0 |
| 20260831031049 | 17 | 130 | 8.0 | 0.0 | 0.00 | 0.00 | 0.00 | 93 | 1011.0 |
| 20260831030256 | 17 | 130 | 8.0 | 0.0 | 0.00 | 0.00 | 0.00 | 93 | 1011.0 |
| 20260831025052 | 17 | 130 | 8.0 | 0.0 | 0.00 | 0.00 | 0.00 | 93 | 1011.0 |
| 20260831024756 | 17 | 130 | 8.0 | 0.0 | 0.00 | 0.00 | 0.00 | 93 | 1011.0 |
| 20260831023256 | 17 | 110 | 4.8 | 0.0 | 0.00 | 0.00 | 0.00 | 88 | 1012.0 |
| 20260831023050 | 17 | 110 | 4.8 | 0.0 | 0.00 | 0.00 | 0.00 | 88 | 1012.0 |
| 20260831021757 | 17 | 110 | 4.8 | 0.0 | 0.00 | 0.00 | 0.00 | 88 | 1012.0 |
| 20260831021049 | 17 | 200 | 3.2 | 0.0 | 0.00 | 0.00 | 0.00 | 93 | 1012.0 |
| 20260831020255 | 17 | 200 | 3.2 | 0.0 | 0.00 | 0.00 | 0.00 | 93 | 1012.0 |
| 20260831015052 | 17 | 200 | 3.2 | 0.0 | 0.00 | 0.00 | 0.00 | 93 | 1012.0 |
| 20260831014755 | 17 | 200 | 3.2 | 0.0 | 0.00 | 0.00 | 0.00 | 93 | 1012.0 |
| 20260831013256 | 17 | 170 | 4.8 | 0.0 | 0.00 | 0.00 | 0.00 | 88 | 1012.0 |
| 20260831013051 | 17 | 170 | 4.8 | 0.0 | 0.00 | 0.00 | 0.00 | 88 | 1012.0 |
| 20260831011756 | 17 | 170 | 4.8 | 0.0 | 0.00 | 0.00 | 0.00 | 88 | 1012.0 |
| 20260831011049 | 17 | 190 | 4.8 | 0.0 | 0.00 | 0.00 | 0.00 | 93 | 1012.0 |
| 20260831010256 | 17 | 190 | 4.8 | 0.0 | 0.00 | 0.00 | 0.00 | 93 | 1012.0 |
| 20260831005052 | 17 | 190 | 4.8 | 0.0 | 0.00 | 0.00 | 0.00 | 93 | 1012.0 |
| 20260831004756 | 17 | 190 | 4.8 | 0.0 | 0.00 | 0.00 | 0.00 | 93 | 1012.0 |
| 20260831003256 | 17 | 200 | 3.2 | 0.0 | 0.00 | 0.00 | 0.00 | 93 | 1012.0 |
| 20260831003050 | 17 | 200 | 3.2 | 0.0 | 0.00 | 0.00 | 0.00 | 93 | 1012.0 |
| 20260831001756 | 17 | 200 | 3.2 | 0.0 | 0.00 | 0.00 | 0.00 | 93 | 1012.0 |
| 20260831001049 | 17 | 160 | 3.2 | 0.0 | 0.00 | 0.00 | 0.00 | 88 | 1012.0 |
| 20260831000256 | 17 | 160 | 3.2 | 0.0 | 0.00 | 0.00 | 0.00 | 88 | 1012.0 |
| 20260830235052 | 17 | 160 | 3.2 | 0.0 | 0.00 | 0.00 | 0.00 | 88 | 1012.0 |
| 20260830234758 | 17 | 160 | 3.2 | 0.0 | 0.00 | 0.00 | 0.00 | 88 | 1012.0 |
| 20260830233255 | 17 | 280 | 8.0 | 0.0 | 0.00 | 0.00 | 0.00 | 88 | 1012.0 |
| 20260830233050 | 17 | 280 | 8.0 | 0.0 | 0.00 | 0.00 | 0.00 | 88 | 1012.0 |
| 20260830231757 | 17 | 280 | 8.0 | 0.0 | 0.00 | 0.00 | 0.00 | 88 | 1012.0 |
| 20260830231048 | 18 | 310 | 4.8 | 0.0 | 0.00 | 0.00 | 0.00 | 82 | 1012.0 |
| 20260830230255 | 18 | 310 | 4.8 | 0.0 | 0.00 | 0.00 | 0.00 | 82 | 1012.0 |
| 20260830225052 | 18 | 310 | 4.8 | 0.0 | 0.00 | 0.00 | 0.00 | 82 | 1012.0 |
| 20260830224755 | 18 | 310 | 4.8 | 0.0 | 0.00 | 0.00 | 0.00 | 82 | 1012.0 |
| 20260830223255 | 18 | 320 | 9.7 | 0.0 | 0.00 | 0.00 | 0.00 | 82 | 1012.0 |